| time (UTC) | temp F | wind direction | speed knots | gust knots | rain 1hr in | rain 24hr in | rain mn in | humidity % | barometer mb |
| 20260502181627 | 67 | 143 | 0.0 | 0.9 | 0.00 | 0.00 | 0.00 | 25 | 1017.1 |
| 20260502181128 | 68 | 135 | 0.0 | 0.0 | 0.00 | 0.00 | 0.00 | 25 | 1017.1 |
| 20260502180630 | 69 | 131 | 0.0 | 0.9 | 0.00 | 0.00 | 0.00 | 24 | 1017.1 |
| 20260502180131 | 69 | 119 | 0.9 | 1.7 | 0.00 | 0.00 | 0.00 | 24 | 1017.0 |
| 20260502170149 | 76 | 112 | 0.9 | 2.6 | 0.00 | 0.00 | 0.00 | 22 | 1017.4 |
| 20260502164155 | 79 | 132 | 2.6 | 6.1 | 0.00 | 0.00 | 0.00 | 21 | 1017.5 |
| 20260502163656 | 80 | 206 | 1.7 | 3.5 | 0.00 | 0.00 | 0.00 | 21 | 1017.6 |
| 20260502163158 | 81 | 154 | 0.9 | 2.6 | 0.00 | 0.00 | 0.00 | 21 | 1017.7 |
| 20260502162659 | 82 | 104 | 0.9 | 4.3 | 0.00 | 0.00 | 0.00 | 21 | 1017.7 |
| 20260502162201 | 83 | 114 | 0.9 | 2.6 | 0.00 | 0.00 | 0.00 | 20 | 1017.8 |
| 20260502161702 | 85 | 91 | 1.7 | 2.6 | 0.00 | 0.00 | 0.00 | 20 | 1017.9 |
| 20260502161204 | 86 | 111 | 1.7 | 3.5 | 0.00 | 0.00 | 0.00 | 20 | 1018.0 |
| 20260502160705 | 87 | 96 | 1.7 | 2.6 | 0.00 | 0.00 | 0.00 | 20 | 1018.0 |
| 20260502160206 | 89 | 107 | 1.7 | 4.3 | 0.00 | 0.00 | 0.00 | 19 | 1018.1 |
| 20260502152218 | 103 | 120 | 1.7 | 3.5 | 0.00 | 0.00 | 0.00 | 17 | 1018.7 |
| 20260502151720 | 104 | 128 | 1.7 | 3.5 | 0.00 | 0.00 | 0.00 | 17 | 1018.8 |
| 20260502151221 | 105 | 127 | 1.7 | 2.6 | 0.00 | 0.00 | 0.00 | 17 | 1018.8 |
| 20260502150722 | 105 | 106 | 1.7 | 4.3 | 0.00 | 0.00 | 0.00 | 17 | 1019.0 |
| 20260502150224 | 106 | 194 | 0.9 | 2.6 | 0.00 | 0.00 | 0.00 | 16 | 1019.0 |
| 20260502130259 | 118 | 89 | 1.7 | 3.5 | 0.00 | 0.00 | 0.00 | 16 | 1020.9 |
| 20260502123806 | 117 | 261 | 2.6 | 6.1 | 0.00 | 0.00 | 0.00 | 16 | 1021.2 |
| 20260502123307 | 116 | 303 | 1.7 | 2.6 | 0.00 | 0.00 | 0.00 | 17 | 1021.3 |
| 20260502122809 | 116 | 165 | 1.7 | 4.3 | 0.00 | 0.00 | 0.00 | 17 | 1021.3 |
| 20260502122310 | 116 | 106 | 2.6 | 5.2 | 0.00 | 0.00 | 0.00 | 17 | 1021.5 |
| 20260502121812 | 118 | 149 | 2.6 | 4.3 | 0.00 | 0.00 | 0.00 | 17 | 1021.6 |
| 20260502121313 | 120 | 220 | 3.5 | 8.7 | 0.00 | 0.00 | 0.00 | 16 | 1021.6 |
| 20260502120815 | 121 | 111 | 0.9 | 2.6 | 0.00 | 0.00 | 0.00 | 16 | 1021.8 |
| 20260502120316 | 120 | 267 | 2.6 | 4.3 | 0.00 | 0.00 | 0.00 | 17 | 1021.8 |
| 20260502115817 | 119 | 252 | 1.7 | 3.5 | 0.00 | 0.00 | 0.00 | 17 | 1021.8 |
| 20260502115319 | 119 | 185 | 0.9 | 2.6 | 0.00 | 0.00 | 0.00 | 17 | 1022.0 |
| 20260502114820 | 118 | 144 | 1.7 | 4.3 | 0.00 | 0.00 | 0.00 | 17 | 1022.0 |
| 20260502114322 | 117 | 164 | 2.6 | 4.3 | 0.00 | 0.00 | 0.00 | 18 | 1022.2 |
| 20260502113823 | 117 | 157 | 1.7 | 3.5 | 0.00 | 0.00 | 0.00 | 18 | 1022.2 |
| 20260502113325 | 117 | 124 | 1.7 | 3.5 | 0.00 | 0.00 | 0.00 | 18 | 1022.2 |
| 20260502112826 | 118 | 89 | 1.7 | 3.5 | 0.00 | 0.00 | 0.00 | 18 | 1022.3 |
| 20260502112327 | 118 | 129 | 1.7 | 3.5 | 0.00 | 0.00 | 0.00 | 18 | 1022.4 |
| 20260502111829 | 117 | 128 | 1.7 | 3.5 | 0.00 | 0.00 | 0.00 | 18 | 1022.4 |
| 20260502111331 | 116 | 83 | 1.7 | 2.6 | 0.00 | 0.00 | 0.00 | 19 | 1022.6 |
| 20260502110832 | 116 | 149 | 2.6 | 6.1 | 0.00 | 0.00 | 0.00 | 19 | 1022.6 |
| 20260502110333 | 115 | 148 | 1.7 | 5.2 | 0.00 | 0.00 | 0.00 | 19 | 1022.6 |
| 20260502105835 | 114 | 135 | 2.6 | 6.1 | 0.00 | 0.00 | 0.00 | 19 | 1022.7 |
| 20260502105336 | 115 | 170 | 2.6 | 6.1 | 0.00 | 0.00 | 0.00 | 19 | 1022.8 |
| 20260502104837 | 115 | 151 | 2.6 | 4.3 | 0.00 | 0.00 | 0.00 | 20 | 1022.8 |
| 20260502104339 | 114 | 46 | 1.7 | 3.5 | 0.00 | 0.00 | 0.00 | 20 | 1022.9 |
| 20260502103840 | 114 | 120 | 1.7 | 3.5 | 0.00 | 0.00 | 0.00 | 20 | 1023.0 |
| 20260502103342 | 113 | 103 | 2.6 | 6.1 | 0.00 | 0.00 | 0.00 | 20 | 1023.1 |
| 20260502102843 | 113 | 132 | 2.6 | 4.3 | 0.00 | 0.00 | 0.00 | 21 | 1023.1 |
| 20260502102345 | 112 | 203 | 2.6 | 6.1 | 0.00 | 0.00 | 0.00 | 21 | 1023.2 |
| 20260502101846 | 113 | 113 | 2.6 | 6.1 | 0.00 | 0.00 | 0.00 | 21 | 1023.2 |
| 20260502101347 | 114 | 201 | 1.7 | 6.1 | 0.00 | 0.00 | 0.00 | 21 | 1023.2 |
| 20260502100849 | 113 | 130 | 1.7 | 2.6 | 0.00 | 0.00 | 0.00 | 21 | 1023.3 |
| 20260502100350 | 113 | 234 | 2.6 | 6.1 | 0.00 | 0.00 | 0.00 | 22 | 1023.5 |
| 20260502091405 | 108 | 195 | 0.9 | 2.6 | 0.00 | 0.00 | 0.00 | 25 | 1024.0 |
| 20260502090906 | 107 | 192 | 0.9 | 2.6 | 0.00 | 0.00 | 0.00 | 25 | 1024.0 |
| 20260502090407 | 106 | 73 | 1.7 | 3.5 | 0.00 | 0.00 | 0.00 | 26 | 1024.1 |
| 20260502071439 | 56 | 49 | 0.9 | 2.6 | 0.00 | 0.00 | 0.00 | 45 | 1024.6 |
| 20260502070941 | 55 | 261 | 0.9 | 2.6 | 0.00 | 0.00 | 0.00 | 46 | 1024.6 |
| 20260502070442 | 54 | 358 | 1.7 | 3.5 | 0.00 | 0.00 | 0.00 | 47 | 1024.8 |
| 20260502065943 | 53 | 248 | 0.9 | 1.7 | 0.00 | 0.00 | 0.00 | 47 | 1024.7 |
| 20260502065445 | 53 | 286 | 1.7 | 3.5 | 0.00 | 0.00 | 0.00 | 48 | 1024.7 |
| 20260502064946 | 52 | 325 | 1.7 | 4.3 | 0.00 | 0.00 | 0.00 | 48 | 1024.7 |
| 20260502064448 | 52 | 170 | 0.9 | 2.6 | 0.00 | 0.00 | 0.00 | 48 | 1024.7 |
| 20260502063949 | 52 | 269 | 1.7 | 3.5 | 0.00 | 0.00 | 0.00 | 48 | 1024.8 |
| 20260502063451 | 51 | 223 | 1.7 | 2.6 | 0.00 | 0.00 | 0.00 | 48 | 1024.8 |
| 20260502062952 | 50 | 264 | 1.7 | 3.5 | 0.00 | 0.00 | 0.00 | 49 | 1024.7 |
| 20260502062454 | 50 | 306 | 0.9 | 4.3 | 0.00 | 0.00 | 0.00 | 49 | 1024.7 |
| 20260502061955 | 49 | 343 | 2.6 | 4.3 | 0.00 | 0.00 | 0.00 | 49 | 1024.8 |
| 20260502061457 | 49 | 342 | 1.7 | 3.5 | 0.00 | 0.00 | 0.00 | 49 | 1024.9 |
| 20260502060958 | 48 | 212 | 0.9 | 3.5 | 0.00 | 0.00 | 0.00 | 49 | 1024.9 |
| 20260502060500 | 48 | 41 | 0.9 | 3.5 | 0.00 | 0.00 | 0.00 | 49 | 1024.8 |
| 20260502060001 | 47 | 261 | 0.9 | 2.6 | 0.00 | 0.00 | 0.00 | 49 | 1024.8 |
| 20260502055503 | 47 | 229 | 1.7 | 3.5 | 0.00 | 0.00 | 0.00 | 50 | 1024.8 |
| 20260502055004 | 47 | 213 | 0.9 | 3.5 | 0.00 | 0.00 | 0.00 | 49 | 1024.8 |
| 20260502054506 | 47 | 247 | 1.7 | 3.5 | 0.00 | 0.00 | 0.00 | 49 | 1024.8 |
| 20260502054007 | 46 | 227 | 1.7 | 2.6 | 0.00 | 0.00 | 0.00 | 49 | 1024.8 |
| 20260502053509 | 46 | 221 | 0.9 | 2.6 | 0.00 | 0.00 | 0.00 | 50 | 1024.8 |
| 20260502053010 | 45 | 257 | 0.0 | 1.7 | 0.00 | 0.00 | 0.00 | 50 | 1024.8 |
| 20260502052511 | 44 | 231 | 1.7 | 4.3 | 0.00 | 0.00 | 0.00 | 50 | 1024.7 |
| 20260502052013 | 44 | 227 | 2.6 | 3.5 | 0.00 | 0.00 | 0.00 | 51 | 1024.7 |
| 20260502051514 | 43 | 237 | 1.7 | 2.6 | 0.00 | 0.00 | 0.00 | 50 | 1024.7 |
| 20260502051016 | 43 | 222 | 1.7 | 3.5 | 0.00 | 0.00 | 0.00 | 51 | 1024.6 |
| 20260502050517 | 42 | 254 | 0.9 | 3.5 | 0.00 | 0.00 | 0.00 | 51 | 1024.6 |
| 20260502050019 | 42 | 226 | 0.9 | 2.6 | 0.00 | 0.00 | 0.00 | 51 | 1024.6 |
| 20260502045520 | 41 | 209 | 0.0 | 0.9 | 0.00 | 0.00 | 0.00 | 51 | 1024.6 |
| 20260502045022 | 41 | 198 | 0.0 | 0.0 | 0.00 | 0.00 | 0.00 | 51 | 1024.6 |
| 20260502044523 | 41 | 203 | 0.0 | 0.0 | 0.00 | 0.00 | 0.00 | 51 | 1024.6 |
| 20260502044025 | 41 | 270 | 0.0 | 0.0 | 0.00 | 0.00 | 0.00 | 51 | 1024.5 |
| 20260502043526 | 41 | 270 | 0.0 | 0.0 | 0.00 | 0.00 | 0.00 | 51 | 1024.4 |
| 20260502043028 | 41 | 237 | 0.0 | 0.0 | 0.00 | 0.00 | 0.00 | 50 | 1024.5 |
| 20260502042529 | 40 | 184 | 0.0 | 0.9 | 0.00 | 0.00 | 0.00 | 50 | 1024.4 |
| 20260502042031 | 40 | 138 | 0.0 | 0.0 | 0.00 | 0.00 | 0.00 | 50 | 1024.5 |
| 20260502041532 | 40 | 220 | 0.0 | 0.0 | 0.00 | 0.00 | 0.00 | 50 | 1024.5 |
| 20260502041034 | 40 | 202 | 0.0 | 1.7 | 0.00 | 0.00 | 0.00 | 50 | 1024.5 |
| 20260502040535 | 40 | 147 | 0.0 | 0.0 | 0.00 | 0.00 | 0.00 | 50 | 1024.5 |
| 20260502040037 | 40 | 249 | 0.0 | 0.9 | 0.00 | 0.00 | 0.00 | 50 | 1024.5 |
| 20260502035538 | 40 | 221 | 0.0 | 1.7 | 0.00 | 0.00 | 0.00 | 50 | 1024.5 |
| 20260502035040 | 40 | 135 | 0.0 | 0.0 | 0.00 | 0.00 | 0.00 | 50 | 1024.6 |
| 20260502034541 | 40 | 135 | 0.0 | 0.0 | 0.00 | 0.00 | 0.00 | 50 | 1024.5 |
| 20260502034043 | 40 | 213 | 0.0 | 0.0 | 0.00 | 0.00 | 0.00 | 50 | 1024.5 |
| 20260502033544 | 40 | 203 | 0.0 | 0.0 | 0.00 | 0.00 | 0.00 | 49 | 1024.5 |
| 20260502033046 | 40 | 227 | 0.0 | 1.7 | 0.00 | 0.00 | 0.00 | 49 | 1024.5 |
| 20260502032547 | 40 | 270 | 0.0 | 0.0 | 0.00 | 0.00 | 0.00 | 49 | 1024.5 |
| 20260502032049 | 40 | 179 | 0.0 | 0.0 | 0.00 | 0.00 | 0.00 | 49 | 1024.5 |
| 20260502031550 | 40 | 226 | 0.0 | 2.6 | 0.00 | 0.00 | 0.00 | 49 | 1024.5 |
| 20260502031052 | 40 | 266 | 0.0 | 0.0 | 0.00 | 0.00 | 0.00 | 49 | 1024.5 |
| 20260502030553 | 41 | 266 | 0.0 | 0.9 | 0.00 | 0.00 | 0.00 | 49 | 1024.5 |
| 20260502030055 | 41 | 270 | 0.0 | 0.0 | 0.00 | 0.00 | 0.00 | 49 | 1024.5 |
| 20260502025556 | 41 | 149 | 0.0 | 0.9 | 0.00 | 0.00 | 0.00 | 49 | 1024.6 |
| 20260502025058 | 41 | 159 | 0.0 | 0.9 | 0.00 | 0.00 | 0.00 | 48 | 1024.6 |
| 20260502024559 | 41 | 127 | 0.0 | 0.9 | 0.00 | 0.00 | 0.00 | 48 | 1024.5 |
| 20260502024100 | 41 | 256 | 0.0 | 2.6 | 0.00 | 0.00 | 0.00 | 48 | 1024.5 |
| 20260502023602 | 41 | 254 | 0.0 | 0.0 | 0.00 | 0.00 | 0.00 | 48 | 1024.5 |
| 20260502023103 | 41 | 203 | 0.0 | 0.0 | 0.00 | 0.00 | 0.00 | 48 | 1024.5 |
| 20260502022605 | 41 | 200 | 0.0 | 0.0 | 0.00 | 0.00 | 0.00 | 48 | 1024.5 |
| 20260502022107 | 41 | 109 | 0.0 | 1.7 | 0.00 | 0.00 | 0.00 | 47 | 1024.5 |
| 20260502021608 | 41 | 164 | 0.0 | 0.0 | 0.00 | 0.00 | 0.00 | 47 | 1024.5 |
| 20260502021109 | 41 | 188 | 0.0 | 0.9 | 0.00 | 0.00 | 0.00 | 47 | 1024.5 |
| 20260502020611 | 41 | 180 | 0.0 | 0.0 | 0.00 | 0.00 | 0.00 | 47 | 1024.6 |
| 20260502020112 | 42 | 180 | 0.0 | 0.0 | 0.00 | 0.00 | 0.00 | 47 | 1024.6 |
| 20260502015614 | 42 | 180 | 0.0 | 0.0 | 0.00 | 0.00 | 0.00 | 47 | 1024.6 |
| 20260502015115 | 42 | 180 | 0.0 | 0.0 | 0.00 | 0.00 | 0.00 | 47 | 1024.7 |
| 20260502014617 | 42 | 180 | 0.0 | 0.0 | 0.00 | 0.00 | 0.00 | 46 | 1024.8 |
| 20260502014118 | 42 | 180 | 0.0 | 0.0 | 0.00 | 0.00 | 0.00 | 46 | 1024.7 |
| 20260502013620 | 42 | 180 | 0.0 | 0.0 | 0.00 | 0.00 | 0.00 | 46 | 1024.8 |
| 20260502013121 | 43 | 180 | 0.0 | 0.0 | 0.00 | 0.00 | 0.00 | 46 | 1024.7 |
| 20260502012623 | 43 | 180 | 0.0 | 0.0 | 0.00 | 0.00 | 0.00 | 46 | 1024.8 |
| 20260502012124 | 43 | 180 | 0.0 | 0.0 | 0.00 | 0.00 | 0.00 | 46 | 1024.8 |
| 20260502011626 | 43 | 180 | 0.0 | 0.0 | 0.00 | 0.00 | 0.00 | 45 | 1024.8 |
| 20260502011127 | 43 | 180 | 0.0 | 0.0 | 0.00 | 0.00 | 0.00 | 45 | 1024.8 |
| 20260502010629 | 43 | 180 | 0.0 | 0.0 | 0.00 | 0.00 | 0.00 | 45 | 1024.8 |
| 20260502010130 | 43 | 180 | 0.0 | 0.0 | 0.00 | 0.00 | 0.00 | 45 | 1024.8 |
| 20260502005632 | 44 | 180 | 0.0 | 0.0 | 0.00 | 0.00 | 0.00 | 45 | 1024.9 |
| 20260502005133 | 44 | 180 | 0.0 | 0.0 | 0.00 | 0.00 | 0.00 | 45 | 1024.9 |
| 20260502004635 | 44 | 181 | 0.0 | 1.7 | 0.00 | 0.00 | 0.00 | 44 | 1024.9 |
| 20260502004136 | 44 | 209 | 0.0 | 0.0 | 0.00 | 0.00 | 0.00 | 44 | 1024.9 |
| 20260502003637 | 44 | 270 | 0.0 | 0.0 | 0.00 | 0.00 | 0.00 | 44 | 1024.9 |
| 20260502003139 | 44 | 173 | 0.0 | 0.0 | 0.00 | 0.00 | 0.00 | 44 | 1024.9 |
| 20260502002640 | 44 | 132 | 0.0 | 0.0 | 0.00 | 0.00 | 0.00 | 44 | 1025.0 |
| 20260502002142 | 44 | 135 | 0.0 | 0.0 | 0.00 | 0.00 | 0.00 | 44 | 1025.0 |
| 20260502001643 | 44 | 160 | 0.0 | 0.0 | 0.00 | 0.00 | 0.00 | 43 | 1025.0 |
| 20260502001145 | 44 | 138 | 0.0 | 0.0 | 0.00 | 0.00 | 0.00 | 43 | 1025.0 |
| 20260502000646 | 44 | 135 | 0.0 | 0.0 | 0.00 | 0.00 | 0.00 | 43 | 1025.0 |
| 20260502000148 | 45 | 135 | 0.0 | 0.0 | 0.00 | 0.00 | 0.00 | 43 | 1025.0 |
| 20260501235649 | 45 | 135 | 0.0 | 0.0 | 0.00 | 0.00 | 0.00 | 43 | 1025.0 |
| 20260501235151 | 45 | 135 | 0.0 | 0.0 | 0.00 | 0.00 | 0.00 | 42 | 1025.0 |
| 20260501234652 | 45 | 128 | 0.0 | 0.0 | 0.00 | 0.00 | 0.00 | 42 | 1025.0 |
| 20260501234154 | 45 | 135 | 0.0 | 0.0 | 0.00 | 0.00 | 0.00 | 42 | 1025.1 |
| 20260501233655 | 45 | 135 | 0.0 | 0.0 | 0.00 | 0.00 | 0.00 | 42 | 1025.1 |
| 20260501233157 | 45 | 135 | 0.0 | 0.0 | 0.00 | 0.00 | 0.00 | 42 | 1025.0 |
| 20260501232658 | 46 | 135 | 0.0 | 0.0 | 0.00 | 0.00 | 0.00 | 41 | 1025.1 |
| 20260501232200 | 46 | 135 | 0.0 | 0.0 | 0.00 | 0.00 | 0.00 | 41 | 1025.2 |
| 20260501231701 | 46 | 154 | 0.0 | 0.0 | 0.00 | 0.00 | 0.00 | 41 | 1025.2 |
| 20260501231202 | 46 | 138 | 0.0 | 0.0 | 0.00 | 0.00 | 0.00 | 41 | 1025.2 |
| 20260501230704 | 46 | 173 | 0.0 | 0.0 | 0.00 | 0.00 | 0.00 | 41 | 1025.1 |
| 20260501230205 | 46 | 143 | 0.0 | 0.0 | 0.00 | 0.00 | 0.00 | 40 | 1025.1 |
| 20260501225707 | 47 | 159 | 0.0 | 0.0 | 0.00 | 0.00 | 0.00 | 40 | 1025.2 |
| 20260501225208 | 47 | 196 | 0.0 | 0.0 | 0.00 | 0.00 | 0.00 | 40 | 1025.2 |
| 20260501224710 | 47 | 160 | 0.0 | 0.0 | 0.00 | 0.00 | 0.00 | 40 | 1025.2 |
| 20260501224211 | 47 | 135 | 0.0 | 0.0 | 0.00 | 0.00 | 0.00 | 39 | 1025.2 |
| 20260501223713 | 47 | 173 | 0.0 | 0.0 | 0.00 | 0.00 | 0.00 | 39 | 1025.2 |
| 20260501223214 | 48 | 173 | 0.0 | 0.0 | 0.00 | 0.00 | 0.00 | 39 | 1025.1 |
| 20260501222716 | 48 | 135 | 0.0 | 0.0 | 0.00 | 0.00 | 0.00 | 39 | 1025.1 |
| 20260501222218 | 48 | 135 | 0.0 | 0.0 | 0.00 | 0.00 | 0.00 | 39 | 1025.2 |
| 20260501221719 | 48 | 135 | 0.0 | 0.0 | 0.00 | 0.00 | 0.00 | 38 | 1025.2 |
| 20260501221220 | 48 | 135 | 0.0 | 0.0 | 0.00 | 0.00 | 0.00 | 38 | 1025.2 |
| 20260501220722 | 48 | 135 | 0.0 | 0.0 | 0.00 | 0.00 | 0.00 | 38 | 1025.2 |
| 20260501220223 | 49 | 135 | 0.0 | 0.0 | 0.00 | 0.00 | 0.00 | 38 | 1025.2 |
| 20260501215724 | 49 | 135 | 0.0 | 0.0 | 0.00 | 0.00 | 0.00 | 38 | 1025.2 |
| 20260501215226 | 49 | 135 | 0.0 | 0.0 | 0.00 | 0.00 | 0.00 | 37 | 1025.1 |
| 20260501214727 | 49 | 135 | 0.0 | 0.0 | 0.00 | 0.00 | 0.00 | 37 | 1025.1 |
| 20260501214229 | 49 | 135 | 0.0 | 0.0 | 0.00 | 0.00 | 0.00 | 37 | 1025.1 |
| 20260501213731 | 50 | 135 | 0.0 | 0.0 | 0.00 | 0.00 | 0.00 | 37 | 1025.1 |
| 20260501213232 | 50 | 135 | 0.0 | 0.0 | 0.00 | 0.00 | 0.00 | 37 | 1025.1 |
| 20260501212733 | 50 | 135 | 0.0 | 0.0 | 0.00 | 0.00 | 0.00 | 36 | 1025.0 |
| 20260501212235 | 50 | 143 | 0.0 | 0.0 | 0.00 | 0.00 | 0.00 | 36 | 1025.0 |
| 20260501211736 | 50 | 135 | 0.0 | 0.0 | 0.00 | 0.00 | 0.00 | 36 | 1025.0 |
| 20260501211238 | 50 | 135 | 0.0 | 0.0 | 0.00 | 0.00 | 0.00 | 36 | 1025.0 |
| 20260501210739 | 51 | 135 | 0.0 | 0.0 | 0.00 | 0.00 | 0.00 | 36 | 1025.0 |
| 20260501210241 | 51 | 135 | 0.0 | 0.0 | 0.00 | 0.00 | 0.00 | 35 | 1025.0 |
| 20260501205742 | 51 | 135 | 0.0 | 0.0 | 0.00 | 0.00 | 0.00 | 35 | 1025.0 |
| 20260501205244 | 51 | 150 | 0.0 | 0.0 | 0.00 | 0.00 | 0.00 | 35 | 1025.1 |
| 20260501204745 | 51 | 270 | 0.0 | 0.0 | 0.00 | 0.00 | 0.00 | 35 | 1025.0 |
| 20260501204247 | 52 | 270 | 0.0 | 0.0 | 0.00 | 0.00 | 0.00 | 34 | 1025.0 |
| 20260501203748 | 52 | 270 | 0.0 | 0.0 | 0.00 | 0.00 | 0.00 | 34 | 1025.0 |
| 20260501203250 | 52 | 270 | 0.0 | 0.0 | 0.00 | 0.00 | 0.00 | 34 | 1025.0 |
| 20260501202751 | 52 | 270 | 0.0 | 0.0 | 0.00 | 0.00 | 0.00 | 34 | 1024.9 |
| 20260501202253 | 53 | 212 | 0.0 | 0.0 | 0.00 | 0.00 | 0.00 | 34 | 1024.9 |
| 20260501201754 | 53 | 190 | 0.0 | 0.0 | 0.00 | 0.00 | 0.00 | 33 | 1024.9 |
| 20260501201256 | 53 | 270 | 0.0 | 0.0 | 0.00 | 0.00 | 0.00 | 33 | 1025.0 |
| 20260501200757 | 54 | 270 | 0.0 | 0.0 | 0.00 | 0.00 | 0.00 | 33 | 1024.9 |
| 20260501200259 | 54 | 270 | 0.0 | 0.0 | 0.00 | 0.00 | 0.00 | 33 | 1024.9 |
| 20260501195800 | 54 | 203 | 0.0 | 0.0 | 0.00 | 0.00 | 0.00 | 32 | 1024.9 |
| 20260501195305 | 54 | 143 | 0.0 | 0.0 | 0.00 | 0.00 | 0.00 | 32 | 1024.9 |
| 20260501194803 | 55 | 135 | 0.0 | 0.0 | 0.00 | 0.00 | 0.00 | 32 | 1024.8 |
| 20260501194304 | 55 | 135 | 0.0 | 0.0 | 0.00 | 0.00 | 0.00 | 32 | 1024.9 |
| 20260501193806 | 55 | 135 | 0.0 | 0.0 | 0.00 | 0.00 | 0.00 | 32 | 1024.8 |
| 20260501193307 | 56 | 135 | 0.0 | 0.0 | 0.00 | 0.00 | 0.00 | 31 | 1024.8 |
| 20260501192809 | 56 | 189 | 0.0 | 0.0 | 0.00 | 0.00 | 0.00 | 31 | 1024.8 |
| 20260501192310 | 57 | 175 | 0.0 | 0.0 | 0.00 | 0.00 | 0.00 | 31 | 1024.9 |
| 20260501191812 | 57 | 135 | 0.0 | 0.0 | 0.00 | 0.00 | 0.00 | 31 | 1024.9 |
| 20260501191313 | 57 | 135 | 0.0 | 0.0 | 0.00 | 0.00 | 0.00 | 30 | 1024.9 |
| 20260501190815 | 58 | 135 | 0.0 | 0.0 | 0.00 | 0.00 | 0.00 | 30 | 1024.8 |
| 20260501190316 | 58 | 135 | 0.0 | 0.0 | 0.00 | 0.00 | 0.00 | 30 | 1024.8 |
| 20260501185818 | 59 | 135 | 0.0 | 0.0 | 0.00 | 0.00 | 0.00 | 29 | 1024.8 |
| 20260501185319 | 59 | 135 | 0.0 | 0.0 | 0.00 | 0.00 | 0.00 | 29 | 1024.8 |
| 20260501184821 | 60 | 135 | 0.0 | 0.0 | 0.00 | 0.00 | 0.00 | 29 | 1024.7 |
| 20260501184322 | 60 | 135 | 0.0 | 0.0 | 0.00 | 0.00 | 0.00 | 29 | 1024.7 |
| 20260501183824 | 61 | 135 | 0.0 | 0.0 | 0.00 | 0.00 | 0.00 | 28 | 1024.6 |
| 20260501183325 | 61 | 135 | 0.0 | 0.0 | 0.00 | 0.00 | 0.00 | 28 | 1024.6 |
| 20260501182826 | 62 | 135 | 0.0 | 0.0 | 0.00 | 0.00 | 0.00 | 28 | 1024.6 |
| 20260501182328 | 63 | 135 | 0.0 | 0.0 | 0.00 | 0.00 | 0.00 | 28 | 1024.6 |